CAPE
876 525 559 556 670 410 372 388 225 210 232 280 269 255 227 174 104 55 31 8 12 1
440 225 282 228 225 227 85 0 38 148 198 191 218 217 141 107 58 54 41 15 6 8
263 175 56 6 0 0 0 0 0 0 31 72 131 126 119 102 51 56 24 24 8 5
145 53 18 13 0 0 0 0 0 0 2 16 61 85 109 110 89 61 46 19 8 7
29 23 24 1 0 0 0 0 0 0 1 1 1 10 42 55 32 19 34 47 1 4
1 5 0 0 0 0 0 0 0 0 0 0 0 0 0 1 10 9 4 5 4 8
3 0 0 0 0 0 0 0 0 0 0 0 0 0 1 3 4 3 10 17 2 17
7 2 0 0 0 0 0 0 0 0 0 0 0 0 0 1 3 6 1 1 2 1
2 1 1 2 1 0 0 0 0 0 0 0 0 0 1 1 1 1 7 1 0 2
3 3 2 2 1 1 1 0 0 0 0 1 0 0 1 0 0 0 0 1 0 0
2 2 3 1 2 2 2 2 2 1 1 1 1 0 0 0 0 0 0 0 0 0
5 2 0 3 2 1 2 2 2 2 1 1 1 1 0 0 0 0 0 0 0 0
2 3 3 1 1 2 2 2 1 1 1 3 1 2 1 0 0 0 0 0 0 0
1 1 2 2 1 0 0 0 0 1 1 1 1 3 4 0 0 0 0 0 0 0
CIN
-243 -249 -233 -214 -209 -230 -173 -135 -147 -164 -168 -159 -164 -133 -98 -75 -57 -61 -66 -8 -8 -1
-272 -321 -305 -288 -233 -194 -214 0 -179 -173 -174 -191 -180 -147 -126 -89 -96 -81 -79 -8 -27 -1
-261 -283 -315 -364 0 0 0 0 0 0 -259 -238 -191 -156 -124 -91 -126 -118 -123 -5 -8 -12
-245 -310 -333 -305 0 0 0 0 0 0 -124 -291 -198 -162 -113 -91 -94 -110 -62 -3 -36 -26
-299 -306 -279 -107 0 0 0 0 0 0 0 -16 -14 -222 -157 -119 -109 -98 0 0 -4 -40
0 -279 0 0 0 0 0 0 0 0 0 0 0 0 0 0 -1 0 -6 -4 -4 -17
0 -54 0 0 0 0 0 0 0 0 0 0 0 0 0 0 0 0 0 -10 -5 -8
0 0 0 0 0 0 0 0 0 0 -1 0 0 0 0 0 0 -5 -3 -6 -18 -7
0 0 0 0 0 0 0 0 0 0 0 0 0 0 0 0 0 0 -19 -3 0 -20
0 0 0 0 0 0 0 0 0 0 0 0 0 0 0 0 0 0 0 0 0 0
0 0 0 0 0 0 0 0 0 0 0 0 0 0 0 0 0 0 0 0 0 0
0 0 0 0 0 0 0 0 0 0 0 0 0 0 0 0 0 0 0 0 0 0
0 0 0 0 0 0 0 0 0 0 0 0 0 0 0 0 0 0 0 0 0 0
0 0 0 0 0 0 0 0 0 0 0 0 0 0 0 0 0 0 0 0 0 0
Wind_Speed
10 8 8 10 9 8 9 10 11 12 11 12 11 11 11 9 10 11 11 15 13 9
9 10 9 9 8 8 7 6 10 11 9 9 10 10 10 9 9 9 12 13 13 12
9 8 6 8 9 9 6 8 9 8 8 7 7 9 11 10 11 11 11 12 14 13
6 6 7 7 6 7 6 7 8 7 7 8 8 8 10 12 12 14 14 13 14 16
6 9 8 8 7 7 7 6 6 5 5 4 4 6 10 12 14 16 16 16 17 18
4 8 8 9 8 6 7 5 5 4 5 5 5 5 7 9 12 15 15 14 15 17
10 5 5 5 7 6 6 6 5 4 4 3 2 3 6 9 12 14 15 14 17 17
14 6 3 3 4 4 4 4 4 3 3 3 3 4 8 10 11 12 8 8 11 11
15 15 14 10 6 7 7 8 8 8 7 6 4 14 12 9 5 4 10 9 9 11
17 16 16 15 13 11 9 9 9 9 7 8 9 15 10 7 6 8 8 9 5 6
16 17 16 16 16 14 10 9 8 8 8 8 9 14 12 9 8 9 10 11 11 8
15 16 17 17 16 14 12 11 10 9 10 9 10 15 13 8 8 10 11 10 12 9
16 16 15 14 16 13 11 12 9 11 12 16 13 17 16 9 6 10 8 11 11 20
16 16 15 13 13 12 13 12 11 12 13 15 15 18 22 18 9 8 9 10 10 10
Wind_Direction
162 177 179 178 171 173 189 199 188 184 187 193 193 199 201 204 207 204 210 212 210 209
161 165 168 163 173 180 179 179 187 194 186 187 192 196 194 206 208 211 213 215 209 209
176 169 157 148 163 169 163 163 170 170 185 191 207 208 206 214 216 213 215 209 204 207
159 143 140 154 162 155 147 162 167 177 185 199 215 212 216 221 222 221 220 221 204 205
137 133 139 141 148 147 149 149 153 164 167 189 209 227 231 234 231 225 224 219 207 208
126 123 132 140 138 128 141 151 169 158 196 204 218 238 257 260 252 233 231 236 210 199
344 94 124 150 138 154 169 155 155 176 200 197 240 284 286 273 255 245 239 232 207 206
347 8 114 101 98 112 117 113 143 150 156 97 69 32 327 291 266 234 219 197 198 194
12 20 16 19 51 60 62 57 66 50 57 48 22 348 308 296 347 286 219 202 200 206
25 26 21 20 25 29 41 67 59 46 42 46 21 357 342 37 38 48 22 354 159 117
30 37 28 29 23 20 16 34 45 52 43 45 28 14 8 26 64 50 38 20 1 63
22 36 46 32 26 25 10 30 39 28 45 45 36 22 30 45 63 63 53 42 34 28
24 26 37 45 43 25 26 25 14 49 33 43 44 34 43 45 71 68 60 49 43 48
28 33 29 33 37 37 37 24 21 33 45 41 36 48 49 49 56 69 70 65 50 52